P/2000 QJ46 ( LINEAR )

Japanese version
Home page
Updated on October 29, 2005

---------------------------------------------------------------------

* Profile

Discovery Date August 24, 2000
Magnitude 18.5 mag
Discoverer Lincoln Laboratory Near-Earth Asteroid Research project

* Orbital Elements

                    Epoch = 2001 Apr.  1.0 TT
     T = 2000 Dec. 10.3467 TT         Peri. = 222.9660
     e = 0.673150                     Node  = 158.2344  2000.0
     q = 1.933644 AU                  Incl. =   4.3757
       a =  5.915996 AU    n = 0.0684955    P =  14.39 years

* Magnitudes Graph

        m1 = 14.5 + 5 log d + 10.0 log r

---------------------------------------------------------------------

The orbital elements are published on IAUC 8622.
The magnitudes graphs are made with Comet for Windows.

---------------------------------------------------------------------

Copyright(C) Seiichi Yoshida (comet@aerith.net). All rights reserved.